Вернуться в каталог

STARLINK-33969

АктивенСвязьVLEO
NORAD 63855·PAYLOAD·🇺🇸 United States

Запущен May 7, 2025 с Cape Canaveral Space Force Station

Loading…

Ближайшие Пролёты (ближайшие 24 часа)

TLE

СвежийSource: CelesTrak SupGP

Эпоха: Sep 15, 2026, 03:04 UTC

1 63855C 25093V   26258.12826389  .00000567  00000+0  20523-4 0  2589
2 63855  43.0031  87.9743 0001458 272.0752 137.7039 15.27581760    14

Отслеживайте STARLINK-33969 в реальном времени с AllMySat

Download on the App Store